Regional Weather Roundup
Issued by NWS State College, PA

Home | Current Version | Previous Version | Graphics & Text | Print | Product List | Glossary On
Versions: 1 2 3 4 5 6 7 8 9 10 11 12 13 14 15 16 17 18 19 20 21 22 23 24 25 26 27 28 29 30 31 32 33 34 35 36 37 38 39 40 41 42 43 44 45 46 47 48 49 50
000
ASUS41 KCTP 161303
RWRCTP

REGIONAL WEATHER ROUNDUP
NATIONAL WEATHER SERVICE STATE COLLEGE PA
900 AM EDT WED AUG 16 2017

Note: "fair" indicates few or no clouds below 12,000 feet with no
significant weather and/or obstructions to visibility.

* = STATION THAT DOES NOT REPORT PRECIPITATION /E.G. RAIN...SNOW...ETC/
    THUNDER OR FOG.

PAZ002>004-007>009-013>016-020>023-029>032-161400-
WESTERN PENNSYLVANIA

CITY           SKY/WX    TMP DP  RH WIND       PRES   REMARKS
ERIE           SUNNY     69  63  81 SW3       30.09R
MEADVILLE      SUNNY     68  64  87 NE5       30.11R
FRANKLIN*      SUNNY     64  59  82 CALM      30.11S
NEW CASTLE     FAIR      64  63  96 CALM      30.11R FOG
BEAVER COUNTY  SUNNY     68  61  77 CALM      30.10R
BUTLER*        MOSUNNY   68  64  88 N5        30.10S
PITTSBURGH INT PTSUNNY   70  64  81 E3        30.09R
PITTSBURGH     CLOUDY    71  63  75 N3        30.09R
INDIANA*       SUNNY     70  66  88 CALM      30.12R
LATROBE        MOSUNNY   66  66 100 CALM      30.10R FOG
WASHINGTON CO* PTSUNNY   66  64  94 CALM      30.09S
$$

PAZ004>006-010>012-017>019-024>028-033>037-041-042-045-046-049>053-161400-
CENTRAL PENNSYLVANIA

CITY           SKY/WX    TMP DP  RH WIND       PRES   REMARKS
BRADFORD       CLOUDY    61  61 100 N5        30.11R FOG
DUBOIS         MOSUNNY   64  61  90 CALM      30.09R FOG
CLEARFIELD     FOG       63  63 100 CALM      30.09R VSB 1/4
JOHNSTOWN      CLOUDY    69  63  81 NW5       30.11S
ALTOONA        CLOUDY    71  67  87 CALM      30.08R
STATE COLLEGE  SUNNY     68  64  88 CALM      30.06F
WILLIAMSPORT   CLOUDY    69  67  93 W8        30.03R
SELINSGROVE    PTSUNNY   71  69  93 N5        30.05R FOG
FT INDIANTOWN  CLOUDY    70  70 100 CALM      30.02R
CAPITAL CITY   CLOUDY    70  68  93 W6        30.02R FOG
HARRISBURG     FOG       70  70 100 NW7       30.01R VSB 1/2
YORK           FOG       68  68 100 CALM      30.02R VSB 1/4
$$

PAZ038>040-043-044-047-048-054-055-060>062-067>071-161400-
EASTERN PENNSYLVANIA

CITY           SKY/WX    TMP DP  RH WIND       PRES   REMARKS
SCRANTON       CLOUDY    65  65 100 CALM      30.04S FOG
MOUNT POCONO   SUNNY     69  64  84 NW7       30.05R
ALLENTOWN      FOG       69  67  93 CALM      30.00R VSB 1/4
QUAKERTOWN*    SUNNY     72  70  94 CALM      30.01R
READING        CLOUDY    70  70 100 W3        30.00R FOG
LANCASTER      FOG       70  70 100 W3        30.01R VSB<1/4
COATESVILLE    SUNNY     73  72  94 NW8       30.02S FOG
POTTSTOWN      CLOUDY    68  68 100 VRB3      30.01R FOG
BLUE BELL      MOSUNNY   70  70 100 CALM      30.00S
DOYLESTOWN     SUNNY     74  70  87 N5        29.99R
WILLOW GROVE   NOT AVBL
NORTH PHILA    SUNNY     77  69  76 N9        29.99S
PHILADELPHIA   MOSUNNY   75  69  81 NW3       29.99R
$$



USA.gov is the U.S. government's official web portal to all federal, state and local government web resources and services.